Home > Weather > Eskilstuna > Past weeks

Flag for Sweden Past Weather in Eskilstuna, Sweden — Yesterday and Last 2 Weeks

Now
48 °F

Low clouds.


Feels Like: 44 °F
Forecast: 46 / 63 °F
Wind: 10 mph from Northeast

Location: Vasteras / Hasslo

Current Time: May 27, 2016 at 4:27:38 AM

Latest Report: May 27, 2016 at 3:50 AM


Visibility: N/A

Pressure: 29.98 "Hg

Humidity: 94%

Dew Point: 46 °F

Location of EskilstunaLocation

Past Weather in Eskilstuna — Graph

°F

Eskilstuna Temperature Yesterday

Maximum temperature yesterday: 52 °F (at 3:20 PM)
Minimum temperature yesterday: 46 °F (at 12:20 AM)
Average temperature yesterday: 49 °F

High & Low Weather Summary for the Past Weeks

 TemperatureHumidityPressure
High77 °F (May 24, 1:20 PM)100% (May 16, 11:50 PM)30.09 "Hg (May 16, 11:50 PM)
Low32 °F (May 12, 4:20 AM)20% (May 12, 3:50 PM)29.56 "Hg (May 14, 3:50 AM)
Average52 °F73%29.83 "Hg
* Reported May 12 3:20 AM — May 27 3:20 AM, Eskilstuna, Weather by CustomWeather, © 2016

Note: Actual official high and low records may vary slightly from our data, if they occured in-between our weather recording intervals... More about our weather records

Advertising

Eskilstuna Weather History for the Previous 24 Hours

Scroll right to see more
 ConditionsComfort  
Time TempWeatherWind HumidityBarometerVisibility
3:20 AM
Fri, May 27
48 °FLow clouds.12 mph94%29.98 "Hg6 mi
2:50 AM48 °FFog.13 mph94%29.98 "Hg2 mi
2:20 AM48 °FFog.10 mph94%29.98 "Hg1 mi
1:50 AM48 °FFog.8 mph94%29.95 "Hg2 mi
1:20 AM48 °FDrizzle. Overcast.8 mph94%29.95 "Hg1 mi
12:50 AM48 °FLight rain. Partly cloudy.10 mph94%29.95 "Hg1 mi
12:20 AM48 °FLow clouds.10 mph94%29.95 "HgN/A
11:50 PM
Thu, May 26
48 °FFog.12 mph94%29.95 "Hg2 mi
11:20 PM50 °FFog.15 mph88%29.95 "Hg6 mi
10:50 PM50 °FPartly cloudy.13 mph88%29.95 "Hg5 mi
10:20 PM50 °FDrizzle. Mostly cloudy.12 mph94%29.95 "Hg6 mi
9:50 PM50 °FLight rain. Partly sunny.10 mph94%29.95 "HgN/A
9:20 PM50 °FLight rain. Partly sunny.9 mph88%29.95 "HgN/A
8:50 PM50 °FPartly sunny.14 mph94%29.95 "HgN/A
8:20 PM50 °FFog.14 mph94%29.92 "Hg6 mi
7:50 PM50 °FDrizzle. Partly sunny.16 mph88%29.92 "Hg5 mi
7:20 PM50 °FPartly sunny.15 mph94%29.92 "HgN/A
6:50 PM52 °FPartly sunny.15 mph88%29.92 "HgN/A
6:20 PM52 °FLight rain. Partly sunny.15 mph88%29.92 "HgN/A
5:50 PM52 °FPartly sunny.15 mph88%29.92 "HgN/A
5:20 PM52 °FLight rain. Partly sunny.15 mph88%29.92 "Hg4 mi
4:50 PM52 °FDrizzle. Partly sunny.13 mph88%29.92 "Hg3 mi
4:20 PM52 °FRain. Partly sunny.14 mph88%29.92 "HgN/A
3:50 PM52 °FLight rain. Broken clouds.14 mph88%29.92 "Hg5 mi
3:20 PM52 °FPartly sunny.15 mph88%29.89 "HgN/A
2:50 PM50 °FPartly sunny.12 mph94%29.89 "HgN/A
2:20 PM50 °FDrizzle. Broken clouds.12 mph88%29.89 "Hg3 mi
1:50 PM48 °FRain. Partly sunny.12 mph94%29.89 "Hg3 mi
1:20 PM48 °FLight rain. Broken clouds.9 mph94%29.92 "Hg5 mi
12:50 PM48 °FLight rain. Broken clouds.12 mph87%29.89 "Hg5 mi
12:20 PM46 °FRain. Broken clouds.10 mph93%29.92 "Hg3 mi
11:50 AM48 °FRain. Broken clouds.12 mph87%29.89 "HgN/A
11:20 AM48 °FPartly sunny.16 mph87%29.89 "HgN/A
10:50 AM48 °FPartly sunny.14 mph87%29.89 "HgN/A
10:20 AM48 °FRain. Broken clouds.16 mph82%29.89 "Hg5 mi
9:50 AM48 °FPartly sunny.16 mph82%29.92 "HgN/A
9:20 AM48 °FLight rain. Broken clouds.17 mph82%29.92 "Hg5 mi
8:50 AM48 °FBroken clouds.17 mph82%29.92 "HgN/A
8:20 AM46 °FLight rain. Scattered clouds.15 mph87%29.92 "HgN/A
7:50 AM46 °FLight rain. Passing clouds.14 mph87%29.92 "HgN/A
7:20 AM48 °FLight rain. Passing clouds.15 mph82%29.92 "HgN/A
6:50 AM48 °FLight rain. Partly sunny.13 mph82%29.92 "HgN/A
6:20 AM48 °FScattered clouds.10 mph82%29.95 "HgN/A
5:50 AM46 °FDrizzle. Cloudy.8 mph87%29.95 "HgN/A
5:20 AM46 °FDrizzle. Cloudy.8 mph87%29.95 "HgN/A
4:50 AM46 °FLight rain. Overcast.9 mph87%29.95 "HgN/A
4:20 AM46 °FPassing clouds.8 mph82%29.98 "HgN/A
Weather by CustomWeather, © 2016

See weather overviewHow to use our weather pages